[[{"header":{"parameterUnit":"m.s-1","parameterCategory":1,"la1":30.2991,"la2":30.254,"lo1":-89.0895,"lo2":-89.0444,"dy":0.0017,"dx":0.0017,"nx":28,"ny":28,"refTime":"2023-08-06T21:00:00:Z","depth":0,"parameterNumber":2,"parameterNumberName":"U-component_of_WINDS"},"data":[0,0,0,0,0,0,0,0,0,0,0,0,0,0,0,0,0,0,0,0,0,0,0,0,0,0,0,0,0,0,0,0,0,0,0,0,0,0,0,0,0,0,0,0,0,0,0,0,0,0,0,0,0,0,0,0,0,0,5.9745,5.9747,0,5.9918,5.992,5.9922,5.9856,5.9852,5.9848,5.9844,6.0022,6.003,6.0039,0,0,0,0,0,0,0,0,0,0,0,0,0,5.9357,5.9365,5.9745,5.9747,5.9749,5.9918,5.992,5.9922,5.9857,5.9852,5.9847,5.9842,6.002,6.0029,6.004,0,0,0,0,0,0,0,0,0,0,0,0,0,5.9527,5.9367,5.9744,5.9737,5.9738,5.9917,5.992,5.9923,5.9858,5.9852,5.9846,5.984,6.0016,6.0028,6.0041,6.0239,0,0,6.008,6.0085,0,0,0,0,0,0,0,0,5.9518,5.9542,5.9736,5.9737,5.9739,5.9859,5.9848,6.0029,5.9859,5.9812,5.9844,5.9837,5.9973,5.9989,6.0034,6.0247,6.0255,6.0081,6.0089,6.0094,6.0098,0,0,0,0,0,0,0,5.9506,5.9534,5.9813,5.9738,5.9741,5.9724,5.9742,5.9882,5.9924,5.9816,5.9811,5.9833,5.9973,6.0022,6.0038,6.0257,6.0081,6.0092,6.01,6.0105,6.0639,6.0645,0,0,0,0,0,0,5.9494,5.9525,5.9808,5.9818,5.9611,5.9736,5.9756,5.9827,5.9922,5.9931,5.9838,5.9829,6.0004,6.0023,6.0044,6.028,6.0094,6.0106,6.0113,6.0632,6.064,6.0647,0,0,0,0,0,0,5.9486,5.952,5.9801,5.967,5.9705,5.9749,5.9829,5.9833,5.9883,5.9939,5.9946,5.9881,6.0,6.0026,6.019,6.0285,6.0112,6.0123,6.0625,6.0635,6.0644,6.0755,0,0,0,0,0,0,5.9475,5.9517,5.9593,5.9673,5.9712,5.9945,5.9835,5.9841,5.9905,5.9895,5.9981,5.999,5.9997,6.0172,6.0203,6.03,6.0133,6.0616,6.0629,6.0641,6.0743,6.0768,6.0788,0,0,0,0,0,5.9461,5.9618,5.9597,5.9632,5.9808,5.995,5.9973,5.9978,5.9913,5.9989,6.0024,5.9987,6.027,6.0189,6.0224,6.0326,6.061,6.0625,6.064,6.0733,6.0763,6.0788,0,0,0,0,0,0,5.9549,5.9628,5.9606,5.9793,5.9866,5.9939,6.0035,6.001,6.0102,6.0089,6.0092,6.0112,6.0281,6.032,6.0228,6.0521,6.043,6.0453,6.0489,6.0518,6.054,6.0527,6.0143,0,0,0,0,0,5.959,5.9699,5.9763,5.9922,5.9959,5.9991,6.0053,6.0051,6.0126,6.0156,6.0204,6.0278,6.0383,6.0453,6.0554,6.0749,6.0765,6.0836,6.0858,6.0877,6.0896,6.1,6.1031,6.0696,6.0696,6.0696,0,0,5.9677,5.9733,5.9802,5.9941,5.9996,6.0109,6.0017,6.0141,6.0224,6.0175,6.0332,6.037,6.0453,6.0633,6.0714,6.0671,6.0992,6.0896,6.091,6.0919,6.1018,6.105,6.1078,6.0706,6.0704,6.0703,0,0,5.9891,5.9945,6.0083,6.014,6.0225,6.0245,6.0278,6.0355,6.0378,6.0536,6.0501,6.06,6.0783,6.0842,6.0897,6.1132,6.11,6.1165,6.1283,6.1384,6.1411,6.1434,6.1517,6.1546,6.1184,6.1184,6.1184,0,5.9987,6.0155,6.0157,6.0283,6.0344,6.0304,6.0443,6.0499,6.0613,6.0656,6.0605,6.0831,6.0885,6.1077,6.1134,6.118,6.1217,6.1155,6.1407,6.143,6.1452,6.1531,6.1562,6.1191,6.119,6.119,6.1189,0,6.0269,6.0386,6.0487,6.0596,6.0669,6.0801,6.0822,6.0896,6.0887,6.0912,6.1072,6.1135,6.1246,6.1292,6.1285,6.1483,6.1453,6.1405,6.1313,6.1491,6.1565,6.1595,6.1202,6.1199,6.1197,6.1195,0,0,6.0544,6.0651,6.0688,6.0737,6.0827,6.0917,6.1047,6.1155,6.1217,6.1297,6.1404,6.1559,6.1514,6.1576,6.1575,6.1665,6.1845,6.1605,6.1607,6.1646,6.2065,6.2099,6.2134,6.1824,6.183,6.1835,6.2057,0,6.0764,6.099,6.0995,6.1203,6.131,6.1273,6.1385,6.1452,6.1479,6.1574,6.1603,6.1712,6.1646,6.1683,6.177,6.1804,6.1929,6.1789,6.1924,6.1929,6.1903,6.2173,6.2211,6.2418,6.2086,6.2091,6.2095,0,6.1051,6.1138,6.1356,6.1429,6.1474,6.1575,6.1673,6.1765,6.184,6.1853,6.1921,6.1907,6.2038,6.1943,6.2123,6.2028,6.2083,6.2109,6.2117,6.2129,6.2022,6.2191,6.2484,6.2514,6.2141,6.2137,6.2134,0,6.1227,6.14,6.1552,6.1595,6.1684,6.1755,6.1796,6.1865,6.1929,6.2015,6.2057,6.2158,6.2213,6.2291,6.2304,6.2234,6.2484,6.2391,6.2498,6.2498,6.2551,6.2548,6.2856,6.259,6.259,6.2589,6.2588,0,6.1472,6.1606,6.1632,6.1726,6.1874,6.1878,6.2026,6.2061,6.2122,6.2221,6.2196,6.229,6.2302,6.2398,6.241,6.2556,6.2582,6.2595,6.2596,6.2597,6.2595,6.2632,6.2618,6.2597,6.2595,6.2594,6.2592,0,6.1694,6.1717,6.188,6.195,6.1971,6.2078,6.2138,6.2227,6.225,6.2376,6.2406,6.2443,6.2556,6.2576,6.2709,6.2716,6.2891,6.2878,6.2865,6.2863,6.2969,6.2958,6.3311,6.3356,6.3062,6.3065,6.3067,0,6.1848,6.195,6.2031,6.2095,6.2139,6.2243,6.2308,6.2316,6.2384,6.2476,6.2554,6.2663,6.2751,6.2932,6.2971,6.3072,6.3061,6.3177,6.3076,6.3072,6.306,6.3053,6.3063,6.3197,6.32,6.3202,6.3204,0,6.2118,6.2124,6.2218,6.2316,6.2394,6.2472,6.2545,6.2599,6.2617,6.2695,6.2809,6.2877,6.3011,6.312,6.322,6.3261,6.3236,6.3236,6.3266,6.3267,6.3254,6.3261,6.2917,6.3228,6.3226,6.3224,6.3223,6.3222,6.231,6.2398,6.2468,6.2574,6.263,6.2698,6.2785,6.2819,6.2914,6.3023,6.3022,6.3146,6.3217,6.3349,6.3397,6.3494,6.3457,6.35,6.3511,6.3522,6.353,6.324,6.3513,6.3512,6.3511,6.3511,6.351,0,6.2577,6.262,6.2717,6.282,6.2902,6.2871,6.295,6.3021,6.313,6.3199,6.3285,6.3415,6.3519,6.3566,6.3669,6.3738,6.3728,6.3764,6.3759,6.3768,6.3559,6.3522,6.377,6.377,6.377,6.377,6.377,6.377,6.2726,6.2873,6.2887,6.3061,6.3103,6.3224,6.3271,6.3334,6.3388,6.3534,6.3621,6.365,6.3709,6.3816,6.391,6.3921,6.3959,6.4001,6.4006,6.381,6.3783,6.3758,6.3723,6.4009,6.401,6.4207,6.4209,6.421]},{"header":{"parameterUnit":"m.s-1","parameterCategory":1,"la1":30.2991,"la2":30.254,"lo1":-89.0895,"lo2":-89.0444,"dy":0.0017,"dx":0.0017,"nx":28,"ny":28,"refTime":"2023-08-06T21:00:00:Z","depth":0,"parameterNumber":3,"parameterNumberName":"V-component_of_WINDS"},"data":[0,0,0,0,0,0,0,0,0,0,0,0,0,0,0,0,0,0,0,0,0,0,0,0,0,0,0,0,0,0,0,0,0,0,0,0,0,0,0,0,0,0,0,0,0,0,0,0,0,0,0,0,0,0,0,0,0,0,0.9012,0.9013,0,0.9048,0.9049,0.9049,0.904,0.9039,0.9039,0.9038,0.9076,0.9078,0.908,0,0,0,0,0,0,0,0,0,0,0,0,0,0.8937,0.8938,0.9012,0.9013,0.9013,0.9048,0.9049,0.9049,0.904,0.9039,0.9039,0.9038,0.9076,0.9078,0.908,0,0,0,0,0,0,0,0,0,0,0,0,0,0.8971,0.8938,0.9012,0.9013,0.9013,0.9048,0.9049,0.9049,0.904,0.9039,0.9038,0.9037,0.9075,0.9078,0.908,0.9117,0,0,0.9088,0.9089,0,0,0,0,0,0,0,0,0.8969,0.8973,0.9012,0.9013,0.9013,0.9039,0.9036,0.9072,0.9041,0.903,0.9038,0.9037,0.9065,0.9068,0.9077,0.9119,0.912,0.9088,0.909,0.9091,0.9091,0,0,0,0,0,0,0,0.8966,0.8972,0.9026,0.9013,0.9014,0.9012,0.9015,0.9043,0.9053,0.9031,0.903,0.9035,0.9065,0.9075,0.9078,0.9121,0.9088,0.909,0.9092,0.9093,0.9193,0.9194,0,0,0,0,0,0,0.8963,0.897,0.9025,0.9028,0.8988,0.9014,0.9018,0.9032,0.9053,0.9055,0.9036,0.9034,0.9071,0.9075,0.9079,0.9123,0.9091,0.9093,0.9094,0.9192,0.9193,0.9195,0,0,0,0,0,0,0.8962,0.8968,0.9024,0.8999,0.9005,0.9016,0.9032,0.9033,0.9043,0.9056,0.9058,0.9044,0.907,0.9076,0.9107,0.9124,0.9094,0.9096,0.9191,0.9192,0.9194,0.9212,0,0,0,0,0,0,0.896,0.8968,0.8982,0.8999,0.9007,0.9051,0.9033,0.9034,0.9047,0.9045,0.9064,0.9066,0.907,0.9104,0.911,0.9127,0.9098,0.9189,0.9191,0.9193,0.921,0.9214,0.9217,0,0,0,0,0,0.8957,0.8986,0.8983,0.8989,0.9025,0.9052,0.9057,0.906,0.9048,0.9063,0.9071,0.9066,0.9121,0.9107,0.9114,0.9132,0.9188,0.9191,0.9193,0.9208,0.9213,0.9217,0,0,0,0,0,0,0.8972,0.8988,0.8985,0.902,0.9035,0.9051,0.9069,0.9065,0.9084,0.9082,0.9085,0.9089,0.9121,0.913,0.9113,0.9168,0.9153,0.9157,0.9162,0.9167,0.917,0.9168,0.9101,0,0,0,0,0,0.8979,0.9,0.9013,0.9043,0.905,0.9058,0.907,0.9071,0.9087,0.9093,0.9104,0.9119,0.914,0.9154,0.9174,0.921,0.9214,0.9226,0.923,0.9233,0.9237,0.9257,0.9262,0.9203,0.9203,0.9203,0,0,0.8994,0.9006,0.9019,0.9046,0.9057,0.9079,0.9063,0.9087,0.9103,0.9097,0.9127,0.9135,0.9152,0.9186,0.9202,0.9195,0.9254,0.9237,0.9239,0.9241,0.926,0.9265,0.927,0.9205,0.9205,0.9204,0,0,0.9034,0.9044,0.907,0.9081,0.9098,0.9103,0.9109,0.9125,0.913,0.916,0.9156,0.9175,0.9211,0.9223,0.9234,0.9276,0.9272,0.9282,0.9303,0.9322,0.9327,0.9331,0.9346,0.9351,0.9286,0.9286,0.9286,0,0.9051,0.9083,0.9084,0.9108,0.912,0.9113,0.9139,0.9151,0.9173,0.9182,0.9173,0.9217,0.9229,0.9265,0.9275,0.9284,0.9291,0.9281,0.9326,0.933,0.9334,0.9348,0.9354,0.9287,0.9287,0.9287,0.9287,0,0.9103,0.9125,0.9144,0.9165,0.9179,0.9204,0.9209,0.9223,0.9222,0.9227,0.9258,0.9271,0.9293,0.9301,0.9301,0.9338,0.9333,0.9325,0.931,0.9341,0.9354,0.936,0.9289,0.9288,0.9288,0.9288,0,0,0.9154,0.9174,0.9181,0.919,0.9208,0.9225,0.9249,0.927,0.9282,0.9297,0.9318,0.9347,0.934,0.9352,0.9353,0.937,0.9402,0.936,0.936,0.9367,0.9442,0.9449,0.9455,0.9399,0.94,0.9401,0.9441,0,0.9194,0.9237,0.9238,0.9277,0.9297,0.929,0.9311,0.9324,0.933,0.9348,0.9354,0.9375,0.9364,0.9371,0.9387,0.9395,0.9417,0.9392,0.9418,0.9419,0.9414,0.9462,0.9469,0.9506,0.9446,0.9447,0.9448,0,0.9248,0.9264,0.9305,0.9318,0.9327,0.9346,0.9364,0.9382,0.9396,0.9399,0.9412,0.941,0.9435,0.9418,0.9451,0.9434,0.9445,0.945,0.9451,0.9455,0.9436,0.9467,0.9518,0.9524,0.9456,0.9455,0.9455,0,0.9281,0.9313,0.9341,0.9349,0.9366,0.9379,0.9387,0.94,0.9412,0.9428,0.9436,0.9455,0.9466,0.9481,0.9484,0.9472,0.9518,0.9501,0.9521,0.9521,0.9532,0.9531,0.9586,0.9538,0.9538,0.9538,0.9538,0,0.9327,0.9352,0.9356,0.9374,0.9401,0.9402,0.9429,0.9436,0.9447,0.9466,0.9462,0.9479,0.9482,0.95,0.9503,0.953,0.9535,0.9538,0.9539,0.9539,0.9539,0.9547,0.9544,0.9539,0.9539,0.9539,0.9538,0,0.9369,0.9373,0.9403,0.9416,0.9419,0.9439,0.945,0.9467,0.9471,0.9494,0.95,0.9507,0.9528,0.9533,0.9558,0.9559,0.9592,0.959,0.9587,0.9587,0.9606,0.9605,0.9669,0.9677,0.9623,0.9624,0.9624,0,0.9398,0.9417,0.9431,0.9443,0.9451,0.947,0.9482,0.9483,0.9496,0.9513,0.9527,0.9548,0.9564,0.9598,0.9606,0.9624,0.9623,0.9644,0.9626,0.9625,0.9623,0.9622,0.9624,0.9648,0.9648,0.9649,0.9649,0,0.9449,0.945,0.9467,0.9485,0.9499,0.9513,0.9526,0.9536,0.9539,0.9554,0.9575,0.9587,0.9612,0.9632,0.9651,0.9659,0.9655,0.9655,0.966,0.9661,0.9659,0.966,0.9597,0.9654,0.9653,0.9653,0.9653,0.9652,0.9486,0.9502,0.9514,0.9533,0.9543,0.9556,0.9572,0.9577,0.9595,0.9615,0.9614,0.9637,0.965,0.9675,0.9684,0.9701,0.9695,0.9703,0.9705,0.9707,0.9709,0.9655,0.9705,0.9705,0.9705,0.9705,0.9704,0,0.9537,0.9544,0.9562,0.958,0.9595,0.9588,0.9602,0.9615,0.9635,0.9648,0.9663,0.9687,0.9706,0.9715,0.9734,0.9746,0.9745,0.9751,0.9751,0.9752,0.9714,0.9707,0.9752,0.9752,0.9752,0.9752,0.9752,0.9752,0.9565,0.9592,0.9594,0.9626,0.9633,0.9655,0.9663,0.9674,0.9684,0.971,0.9726,0.9731,0.9742,0.9761,0.9778,0.978,0.9788,0.9795,0.9796,0.976,0.9755,0.9751,0.9744,0.9796,0.9797,0.9833,0.9834,0.9834]}]]